Regional Weather Roundup
Issued by NWS

Home | Current Version | Previous Version | Text Only | Print | Product List | Glossary Off
Versions: 1 2 3 4 5 6 7 8 9 10 11 12 13 14 15 16 17 18 19 20 21 22 23 24 25 26 27 28 29 30 31 32 33 34 35 36 37 38 39 40 41 42 43 44 45 46 47 48 49 50

000
ASUS43 KBIS 211810
RWRND

NORTH DAKOTA REGIONAL WEATHER ROUNDUP
NATIONAL WEATHER SERVICE BISMARCK ND
1200 PM CST TUE NOV 21 2017

NOTE: "FAIR" INDICATES FEW OR NO CLOUDS BELOW 12,000 FEET WITH NO
SIGNIFICANT WEATHER AND/OR OBSTRUCTIONS TO VISIBILITY.


NDZ001>003-009>011-017-211900-
NORTHWEST NORTH DAKOTA

CITY           SKY/WX    TMP DP  RH WIND       PRES   REMARKS
WILLISTON      CLOUDY     9  -1  64 W8        30.42R WCI  -3
6HR MIN TEMP:   3; 6HR MAX TEMP:   9;

MINOT          CLOUDY    12   3  67 W13       30.34F WCI  -3
MINOT AFB      CLOUDY    12   3  67 W15       30.33F WCI  -4
$$

NDZ018>021-031>035-040>046-211900-
SOUTHWEST NORTH DAKOTA

CITY           SKY/WX    TMP DP  RH WIND       PRES   REMARKS
BISMARCK       CLOUDY    20   7  57 W16       30.40S WCI   6
6HR MIN TEMP:  16; 6HR MAX TEMP:  21; 6HR PCP: TRACE;

DICKINSON      SUNNY     14   1  56 W16       30.31F WCI  -2
GARRISON         N/A     12   3  67 W13       30.35F WCI  -3
6HR MIN TEMP:   5; 6HR MAX TEMP:  12;

HETTINGER ARPT SUNNY     17   0  47 NW17      30.35S WCI   1
$$

NDZ004>008-012>016-024-026-027-054-211900-
NORTHEAST NORTH DAKOTA

CITY           SKY/WX    TMP DP  RH WIND       PRES   REMARKS
GRAND FORKS    MOSUNNY   19  11  70 NW20G30   30.29R WCI   3
GRND FRKS AFB  SUNNY     19   9  66 NW17      30.30R WCI   4
DEVILS LAKE    PTSUNNY   15   9  76 NW17      30.31S WCI  -1
$$

NDZ022-023-025-028>030-036>039-047>053-211900-
SOUTHEAST NORTH DAKOTA

CITY           SKY/WX    TMP DP  RH WIND       PRES   REMARKS
FARGO          MOSUNNY   21   9  59 NW17G30   30.30R WCI   7
6HR MIN TEMP:  15; 6HR MAX TEMP:  22; 6HR PCP: TRACE;

JAMESTOWN      MOSUNNY   18   7  62 NW20      30.32S WCI   2
$$





USA.gov is the U.S. government's official web portal to all federal, state and local government web resources and services.